This demonstration page uses our WeatherBlox Daily Observations layout. Learn more.

Hourly Observations for August 5, 2016

Temp ( °F °C ) Dew Point ( °F °C ) Humidity (%) Winds ( mph kmh ) Pressure ( in mb ) Visibility ( mi km ) Precip ( " mm )
12:54 am 00:54 Clear 70 21.1 64 17.8 82 82 N 3 6 29.94 1014 10 16.0934 0 0.0254
1:39 am 01:39 Mostly Cloudy with Nearby Thunderstorms 69 20.6 64 17.8 84 84 N 7 11 29.94 1014 10 16.0934 0 0
1:54 am 01:54 Mostly Cloudy with Nearby Thunderstorms 70 21.1 64 17.8 82 82 N 6 9 29.95 1014 10 16.0934 0 0
2:47 am 02:47 Cloudy 72 22.2 64 17.8 76 76 SW 10 17 30.03 1017 10 16.0934 0 0
2:54 am 02:54 Mostly Cloudy with Nearby Thunderstorms 70 21 64 18 83 83 S 5 7 30 1016 10 16.0934 0 0
3:10 am 03:10 Mostly Clear 69 20.6 64 17.8 84 84 Calm 30 1016 10 16.0934 0 0
3:54 am 03:54 Clear 69 20.6 65 18.3 87 87 Calm 30 1016 10 16.0934 0 0
4:54 am 04:54 Clear 68 20 65 18.3 90 90 Calm 29.99 1016 10 16.0934 0 0
5:54 am 05:54 Clear 67 19.4 63 17.2 87 87 N 6 9 29.98 1015 10 16.0934 0 0
6:54 am 06:54 Sunny 65 18.3 63 17.2 93 93 N 7 11 30 1016 10 16.0934 0 0
7:54 am 07:54 Mostly Cloudy 68 20 63 17.2 84 84 NNW 5 7 30.05 1018 10 16.0934 0 0
8:54 am 08:54 Sunny 71 21.7 64 17.8 79 79 N 6 9 30.06 1018 10 16.0934 0 0
9:54 am 09:54 Sunny 75 23.9 62 16.7 64 64 NNE 10 17 30.06 1018 10 16.0934 0 0
10:54 am 10:54 Sunny 76 24.4 63 17.2 64 64 NE 10 17 30.06 1018 10 16.0934 0 0
11:54 am 11:54 Sunny 78 25.6 64 17.8 62 62 NE 12 19 30.06 1018 10 16.0934 0 0
12:54 pm 12:54 Sunny 80 26.7 64 17.8 58 58 NNE 12 19 30.05 1018 10 16.0934 0 0
1:54 pm 13:54 Sunny 80 26.7 63 17.2 56 56 NE 9 15 30.04 1017 10 16.0934 0 0
2:54 pm 14:54 Mostly Sunny 81 27.2 61 16.1 51 51 NNE 13 20 30.03 1017 10 16.0934 0 0
3:54 pm 15:54 Partly Cloudy 79 26.1 62 16.7 56 56 NNE 8 13 30.02 1017 10 16.0934 0 0
4:54 pm 16:54 Sunny 80 26.7 63 17.2 56 56 NNE 13 20 30.01 1016 10 16.0934 0 0
5:54 pm 17:54 Mostly Sunny 80 26.7 63 17.2 56 56 NNE 13 20 30.01 1016 10 16.0934 0 0
6:54 pm 18:54 Sunny 78 25.6 63 17.2 60 60 N 12 19 30.01 1016 10 16.0934 0 0
7:54 pm 19:54 Sunny 75 23.9 63 17.2 66 66 NNE 7 11 30.02 1017 10 16.0934 0 0
8:54 pm 20:54 Clear 70 21.1 64 17.8 82 82 NNE 6 9 30.02 1017 10 16.0934 0 0
9:54 pm 21:54 Clear 69 20.6 64 17.8 84 84 N 5 7 30.04 1017 10 16.0934 0 0
10:54 pm 22:54 Clear 69 20.6 64 17.8 84 84 N 3 6 30.06 1018 10 16.0934 0 0
11:54 pm 23:54 Partly Cloudy 69 20.6 65 18.3 87 87 N 7 11 30.07 1018 10 16.0934 0 0

Powered by AerisWeather